DUSTY44 KLSV-KLAS

Flight info

Callsign DUSTY44
Flight time 0h -3m
Altitude VFR/010
Route
Aircraft V22/M-VGD/C

Departure

Time 2026-04-11 05:43
Airport Nellis Air Force Base (KLSV)

Arrival

Time 2026-04-11 05:40
Airport Harry Reid International Airport (KLAS)
Time Latitude Longitude Altitude Speed Heading
2026-04-11 05:40 36.22715 -115.05085 1852 ft 0 kts 221°
2026-04-11 05:41 36.22713 -115.05085 1852 ft 1 kts 205°
2026-04-11 05:41 36.22701 -115.05030 1851 ft 10 kts 101°
2026-04-11 05:42 36.22651 -115.04940 1850 ft 14 kts 134°
2026-04-11 05:42 36.22613 -115.04894 1849 ft 0 kts 139°
2026-04-11 05:42 36.22610 -115.04885 1853 ft 4 kts 144°
2026-04-11 05:42 36.22617 -115.04852 1936 ft 11 kts 147°
2026-04-11 05:43 36.22593 -115.04804 2050 ft 8 kts 158°
2026-04-11 05:43 36.22508 -115.04791 2183 ft 16 kts 172°
2026-04-11 05:43 36.22356 -115.04881 2473 ft 44 kts 198°
2026-04-11 05:43 36.22048 -115.05112 2981 ft 64 kts 215°
2026-04-11 05:44 36.21632 -115.05473 3393 ft 82 kts 216°
2026-04-11 05:44 36.21179 -115.05885 3859 ft 85 kts 217°
2026-04-11 05:44 36.20693 -115.06351 4148 ft 95 kts 219°
2026-04-11 05:44 36.20141 -115.06973 4142 ft 127 kts 223°
2026-04-11 05:45 36.19394 -115.07805 3912 ft 161 kts 221°
2026-04-11 05:45 36.18442 -115.08865 3250 ft 210 kts 220°
2026-04-11 05:45 36.17253 -115.10261 3082 ft 228 kts 226°
2026-04-11 05:45 36.16257 -115.11575 3201 ft 195 kts 225°
2026-04-11 05:46 36.15308 -115.12495 3153 ft 152 kts 212°
2026-04-11 05:46 36.14400 -115.13110 3312 ft 142 kts 207°
2026-04-11 05:46 36.13566 -115.13580 3264 ft 121 kts 206°
2026-04-11 05:46 36.12837 -115.13971 3102 ft 109 kts 205°
2026-04-11 05:47 36.12148 -115.14344 2868 ft 105 kts 207°
2026-04-11 05:47 36.11495 -115.14719 2644 ft 102 kts 209°
2026-04-11 05:47 36.10915 -115.15077 2476 ft 85 kts 209°
2026-04-11 05:47 36.10453 -115.15352 2326 ft 67 kts 210°
2026-04-11 05:48 36.09982 -115.15617 2261 ft 87 kts 207°
2026-04-11 05:48 36.09408 -115.15984 2424 ft 96 kts 220°
2026-04-11 05:48 36.09194 -115.16827 2922 ft 128 kts 271°
2026-04-11 05:48 36.09845 -115.17771 3196 ft 169 kts 329°
2026-04-11 05:49 36.11086 -115.17619 3258 ft 214 kts 25°
2026-04-11 05:49 36.12544 -115.16344 3020 ft 281 kts 37°
2026-04-11 05:49 36.14152 -115.14835 3231 ft 296 kts 38°
2026-04-11 05:49 36.15768 -115.13215 3319 ft 302 kts 39°
2026-04-11 05:50 36.17542 -115.11738 3396 ft 303 kts 19°
2026-04-11 05:50 36.19582 -115.11783 3158 ft 301 kts 323°
2026-04-11 05:50 36.20244 -115.13958 2955 ft 280 kts 250°
2026-04-11 05:50 36.18865 -115.15358 3105 ft 272 kts 188°
2026-04-11 05:51 36.17104 -115.14597 2855 ft 295 kts 129°
2026-04-11 05:51 36.16614 -115.12175 3079 ft 298 kts 83°
2026-04-11 05:51 36.17475 -115.09852 3359 ft 299 kts 49°
2026-04-11 05:51 36.18905 -115.07962 3469 ft 305 kts 63°
2026-04-11 05:52 36.18586 -115.05686 3119 ft 293 kts 154°
2026-04-11 05:52 36.16913 -115.05854 3119 ft 236 kts 227°
2026-04-11 05:52 36.16075 -115.07707 3218 ft 257 kts 246°
2026-04-11 05:52 36.15577 -115.09917 3329 ft 268 kts 256°
2026-04-11 05:53 36.15066 -115.12118 3611 ft 272 kts 243°
2026-04-11 05:53 36.13673 -115.13729 3552 ft 295 kts 204°
2026-04-11 05:53 36.11702 -115.14634 3245 ft 319 kts 202°
2026-04-11 05:53 36.10049 -115.16193 3535 ft 278 kts 250°
2026-04-11 05:54 36.10944 -115.17720 2952 ft 250 kts
2026-04-11 05:54 36.12416 -115.17132 3198 ft 206 kts 44°
2026-04-11 05:54 36.12712 -115.15688 2802 ft 169 kts 114°
2026-04-11 05:54 36.11983 -115.14786 2828 ft 146 kts 165°
2026-04-11 05:55 36.11023 -115.14987 2484 ft 140 kts 209°
2026-04-11 05:55 36.10212 -115.15486 2232 ft 118 kts 207°
2026-04-11 05:55 36.09553 -115.15857 2113 ft 90 kts 203°
2026-04-11 05:55 36.09163 -115.16103 2130 ft 33 kts 204°
2026-04-11 05:56 36.09116 -115.16132 2133 ft 2 kts 210°
2026-04-11 05:56 36.09084 -115.16151 2134 ft 8 kts 206°
2026-04-11 05:56 36.08999 -115.16202 2137 ft 20 kts 209°
2026-04-11 05:56 36.08912 -115.16272 2143 ft 7 kts 294°
2026-04-11 05:57 36.08930 -115.16303 2159 ft 8 kts 278°
2026-04-11 05:57 36.09005 -115.16469 2181 ft 36 kts 283°
2026-04-11 05:57 36.09113 -115.16576 2147 ft 1 kts 271°
2026-04-11 05:57 36.09115 -115.16582 2147 ft 0 kts 247°